Flag for Switzerland Weather past 2 weeks in Ostermundigen, Bern, Switzerland

Now
63 °F

Clear.


Feels Like: 63 °F
Forecast: 57 / 85 °F
Wind: 2 mph from North

Location: Bern / Belp

Current Time: Aug 29, 2015 at 12:48:21 AM

Latest Report: Aug 28, 2015 at 11:50 PM


Visibility: 10 mi

Pressure: 30.18 "Hg (28.27 "Hg at 556m altitude)

Humidity: 94%

Dew point: 61 °F

Location of OstermundigenLocation

Historic Weather in Ostermundigen — Graph

°F

Ostermundigen temperature yesterday

Maximum temperature yesterday: 86 °F (at 3:50 PM)
Minimum temperature yesterday: 57 °F (at 6:50 AM)
Average temperature yesterday: 71 °F

Past Weeks' High & Low Weather Summary

 TemperatureHumidityPressure
High86 °F (Aug 27, 6:50 PM)100% (Aug 13, 11:20 PM)30.27 "Hg (Aug 13, 11:20 PM)
Low48 °F (Aug 20, 3:20 AM)39% (Aug 21, 4:50 PM)29.74 "Hg (Aug 24, 4:20 AM)
Average62 °F84%30.02 "Hg
* Reported Aug 13 11:20 PM — Aug 28 11:20 PM, Ostermundigen, Weather by CustomWeather, © 2015

Note: Actual official high and low records may vary slightly from our data, if they occured in-between our weather recording intervals... More about our weather records

Advertising

Ostermundigen weather history for previous 24 hours

 ConditionsComfort  
Time TempWeatherWind HumidityBarometerVisibility
11:20 PM
Fri, Aug 28
63 °FClear.2 mph94%30.18 "Hg10 mi
10:50 PM64 °FClear.1 mph94%30.15 "Hg10 mi
10:20 PM64 °FClear.2 mph94%30.15 "Hg10 mi
9:50 PM66 °FClear.2 mph88%30.15 "Hg10 mi
9:20 PM66 °FClear.1 mph94%30.15 "Hg10 mi
8:50 PM68 °FSunny.1 mph88%30.12 "Hg10 mi
8:20 PM72 °FSunny.2 mph83%30.12 "Hg10 mi
7:50 PM77 °FSunny.2 mph65%30.09 "Hg10 mi
7:20 PM84 °FSunny.7 mph45%30.09 "Hg10 mi
6:50 PM84 °FSunny.8 mph45%30.09 "Hg10 mi
6:20 PM86 °FPassing clouds.8 mph43%30.09 "HgN/A
5:50 PM86 °FPassing clouds.9 mph40%30.09 "HgN/A
5:20 PM86 °FPassing clouds.7 mph40%30.09 "HgN/A
4:50 PM86 °FPassing clouds.12 mph40%30.09 "HgN/A
4:20 PM86 °FPassing clouds.12 mph40%30.09 "HgN/A
3:50 PM86 °FSunny.14 mph43%30.09 "Hg10 mi
3:20 PM84 °FSunny.12 mph43%30.09 "Hg10 mi
2:50 PM84 °FPassing clouds.6 mph45%30.09 "HgN/A
2:20 PM84 °FPassing clouds.6 mph48%30.12 "HgN/A
1:50 PM82 °FPassing clouds.6 mph48%30.12 "HgN/A
1:20 PM81 °FSunny.2 mph54%30.12 "Hg10 mi
12:50 PM82 °FSunny.2 mph55%30.12 "Hg10 mi
12:20 PM79 °FSunny.3 mph54%30.12 "Hg10 mi
11:50 AM77 °FSunny.1 mph57%30.12 "Hg10 mi
11:20 AM75 °FScattered clouds.2 mph65%30.12 "HgN/A
10:50 AM73 °FPassing clouds.5 mph65%30.12 "HgN/A
10:20 AM72 °FPassing clouds.5 mph73%30.12 "HgN/A
9:50 AM70 °FScattered clouds.6 mph78%30.09 "HgN/A
9:20 AM66 °FScattered clouds.5 mph83%30.09 "HgN/A
8:50 AM64 °FPassing clouds.2 mph88%30.09 "HgN/A
8:20 AM63 °FSunny.7 mph94%30.09 "Hg10 mi
7:50 AM61 °FPassing clouds.3 mph100%30.09 "HgN/A
7:20 AM57 °FClear.No wind100%30.07 "Hg10 mi
6:50 AM57 °FPassing clouds.5 mph100%30.07 "HgN/A
5:50 AM59 °FPassing clouds.5 mph100%30.04 "HgN/A
5:20 AM61 °FPartly cloudy.3 mph94%30.04 "HgN/A
4:50 AM61 °FPassing clouds.2 mph100%30.04 "HgN/A
4:20 AM59 °FPartly cloudy.5 mph100%30.04 "HgN/A
3:50 AM61 °FPassing clouds.3 mph100%30.04 "HgN/A
3:20 AM59 °FPassing clouds.2 mph100%30.04 "HgN/A
2:50 AM61 °FClear.1 mph100%30.04 "HgN/A
2:20 AM61 °FPassing clouds.5 mph100%30.04 "HgN/A
1:50 AM63 °FPassing clouds.2 mph94%30.04 "HgN/A
1:20 AM63 °FPassing clouds.3 mph100%30.01 "HgN/A
12:50 AM63 °FOvercast.2 mph100%30.01 "HgN/A
12:20 AM64 °FPassing clouds.6 mph94%30.01 "HgN/A
Weather by CustomWeather, © 2015

See weather overviewHow to use our weather pages